CZ-6A DEB

Satellite information

Favourite Embed

Satellite Type and Status

DEBRISIN ORBIT

Key statistics

Satellite CZ-6A DEB at a glance.

Uptime

495

Days in orbit

Revolutions

≈ 14.3

Per day

Orbit

LEO

Low Earth Orbit

Inclination

89.1

Latest

Satellite identification and parameters

Extended collection of information and parameters for CZ-6A DEB.

Object identification

Identified? True

Debris? True

Object name: CZ-6A DEB

International designator: 2024-140NQ

Object number (NORAD): 61098

Object ID (CCSDS): 61098

Country: PEOPLES REPUBLIC OF CHINA (PRC)

Current information (Y/N): Y

RCS size: SMALL

Orbital parameters

Period: 100.662 minutes

Inclination: 89.0643 deg

SMA: 7168.116 km

Apoapsis: 844.396 km

Periapsis: 735.565 km

RAAN: 299.8671 deg

Eccentricy: 0.00759134

Argument of periapsis: 48.4732 deg

Mean anomaly: 312.2943 deg

Mean motion: 14.30524306 rev/day

Mean motion (dot): 0.00025471 rev/day2

B* drag term: 0.0094406293 1/REarth

Two-line elements (TLE)

Creation date: Dec. 14, 2025, 3:07 a.m.

Reference frame: TEME

Reference center: EARTH

Epoch: Dec. 13, 2025, 2:01 p.m. UTC

TLE line 0: 0 CZ-6A DEB

TLE line 1: 1 61098U 24140NQ 25347.58439869 .00025471 00000-0 94406-2 0 9992

TLE line 2: 2 61098 89.0643 299.8671 0075913 48.4732 312.2943 14.30524306 67040

Live tracking on map

Real-time ground track for satellite CZ-6A DEB.

In-orbit conjunctions

A list of the most updated potential collisions computed for object CZ-6A DEB.

Target Orbit TCA Probability of collision Miss distance Type
COSMOS 2150 LEO 2025-11-18 07:50:28 0.0005784852 132.0 (m) PAYLOAD
IRIDIUM 914 LEO 2025-08-24 10:45:38 0.0002994546 411.0 (m) PAYLOAD
FENGYUN 1C DEB SSO 2025-01-10 01:25:21 0.0001133232 687.0 (m) DEBRIS
CZ-4 DEB SSO 2024-10-24 09:50:37 0.0001331148 134.0 (m) DEBRIS

Associated space launch

18 Low Earth Orbit communication satellites with Ku, Q and V band payloads for the G60 constellation operated by Shanghai Spacecom Satellite Technology (SSST) with funding backed by the Shanghai local government. Initial constellation will consist of 1296 satellites by 2027 with long term plans to expand it to 12000 satellites.

CZ-6A DEB was lifted into orbit during the mission ‘Long March 6A | G60 Polar Group 01’, on board a Long March 6A space rocket.

The launch took place on Aug. 6, 2024, 6:42 a.m. from Launch Complex 9A.

For more information about the launch, click the button.

Launch to space Long March 6A | G60 Polar Group 01
Long March 6A | G60 Polar Group 01

Agency: N/A

Status: Launch Successful

Launch date: Aug. 6, 2024, 6:42 a.m. UTC

Rocket: Long March 6A

Launch pad: Launch Complex 9A

Location: Taiyuan Satellite Launch Center, People's Republic of China

...

Latest news about this satellite

News about space launch
Brightness of first Chinese broadband constellation satellites alarms astronomers

The first satellites of a Chinese broadband constellation are significantly brighter than those of Western systems, posing a new challenge for astronomers.

News about space launch
Chinese rocket stage breaks up into cloud of more than 700 pieces of space debris

HELSINKI — A Chinese Long March 6A rocket’s upper stage has fragmented into a cloud of over 700 pieces of space debris, adding to concerns about long-term orbital safety. China […]

News about space launch
China's Thousand Sails Megaconstellation Kicks Off with Dangerous Debris Field

China's Thousand Sails Megaconstellation Kicks Off with Dangerous Debris Field


Newsletter sign-up

Weekly statistics, charts and insights to help you stay on top of the space industry.